ECHOSTAR 18 (41592 NORAD) Tracking and Keplerian Element Data

This shows tracking and keplerian element data for the satellite.

Feedback or suggestion? Click here.




ElementValue
Catalog41592
NameECHOSTAR 18
Epoch Orbit763
Epoch Day198.35066864
Epoch Year2018
RAAN55.5325
Inclination0.0177
Eccentricity0.0001338
Argument of Perigee49.0035
Mean Anonmoly255.4607
Mean Motion1.00270666
Decay Rate-3.02E-06
L11 41592U 16039B 18198.35066864 -.00000302 00000-0 00000-0 0 9991
L22 41592 0.0177 55.5325 0001338 49.0035 255.4607 1.00270666 7632

Live tracking and technical data element details for ECHOSTAR 18 (NORAD 41592). ECHOSTAR 18 can be tracked NOW for your location showing map with azimuth and elevation plus other details from your city location.

Track the satellite on the map from your city or location and see movement details for azimuth, elevation, latitude, longitude, range, height, and movement on the map or in text.







IsCatalogInMostPopularTable: catalog: 41592, numindb: 58
Update: records affected: 1



GetName: 41592 ECHOSTAR 18

Hit Count: updated at: Thu, 19 Jul 2018 03:41:21 GMT